NORTHERN QUEENS  -  Heat Advisory Heat Advisory     Air Quality Alert Air Quality Alert        SOUTHERN QUEENS  -  Heat Advisory Heat Advisory     Air Quality Alert Air Quality Alert      

Active alerts

Northern Queens
  Details for Northern Queens Heat Advisory  +1 additional alert
Southern Queens
  Details for Southern Queens Heat Advisory  +1 additional alert


WXM80 ListenWXM80 Stop

You find our weather info also at:

UK Metoffice

WeatherCloud

Weather Underground

Northeastern Weather Network

AWEKAS

Citizen Weather Observer Program (CWOP)

HAMweather, WeatherForYou, PWS Weather


Weather Underground History page Text

Daily Summary for June 17, 2016 Units:  English    Metric   Both
« Previous Day
Next Day »
Daily Weekly Monthly Yearly Custom
  High: Low: Average:
Temperature: 79.4 °F 61.2 °F 67.5 °F
Dew Point: 65.6 °F 47.3 °F 58.4 °F
Humidity: 97 % 39 % 75 %
Wind Speed: 8.5 mph 0.0 mph 1.6 mph
Wind Gust: 17.3 mph - -
Wind:- - ESE
Pressure: 30.10 in 29.74 in -
Precipitation: 0.00 in    
Historical Graphs
 
 
Tabular Data for June 17, 2016
Time Temperature Dew Point Pressure Wind Wind Speed Wind Gust Humidity Rainfall Rate (Hourly)
00:04 63.4 °F 60.7 °F 29.74 in WSW 0.4 mph 1.2 mph 91 % 0.00 in
00:09 63.3 °F 60.6 °F 29.74 in Calm     91 % 0.00 in
00:15 63.2 °F 60.5 °F 29.74 in Calm   1.0 mph 91 % 0.00 in
00:20 63.1 °F 60.4 °F 29.75 in Calm   1.2 mph 91 % 0.00 in
00:25 63.0 °F 60.3 °F 29.74 in Calm   1.0 mph 91 % 0.00 in
00:30 63.0 °F 60.3 °F 29.75 in Calm   1.0 mph 91 % 0.00 in
00:35 62.9 °F 60.2 °F 29.75 in Calm     91 % 0.00 in
00:40 62.8 °F 60.1 °F 29.75 in Calm     91 % 0.00 in
00:45 62.7 °F 60.0 °F 29.75 in Calm     91 % 0.00 in
00:50 62.6 °F 59.9 °F 29.75 in Calm     91 % 0.00 in
00:55 62.5 °F 59.8 °F 29.75 in Calm     91 % 0.00 in
01:00 62.5 °F 59.8 °F 29.75 in WSW 0.3 mph 1.0 mph 91 % 0.00 in
01:06 62.4 °F 59.7 °F 29.75 in Calm     91 % 0.00 in
01:11 62.3 °F 59.9 °F 29.75 in Calm     92 % 0.00 in
01:16 62.3 °F 59.9 °F 29.76 in Calm     92 % 0.00 in
01:21 62.3 °F 59.9 °F 29.76 in Calm     92 % 0.00 in
01:31 62.1 °F 59.7 °F 29.76 in Calm     92 % 0.00 in
01:36 62.0 °F 59.6 °F 29.76 in Calm     92 % 0.00 in
01:41 62.0 °F 59.6 °F 29.77 in Calm   1.2 mph 92 % 0.00 in
01:46 61.9 °F 59.5 °F 29.77 in Calm     92 % 0.00 in
01:51 61.9 °F 59.5 °F 29.77 in WSW 0.1 mph   92 % 0.00 in
01:57 61.8 °F 59.5 °F 29.77 in Calm     92 % 0.00 in
02:02 61.8 °F 59.5 °F 29.76 in Calm     92 % 0.00 in
02:07 61.7 °F 59.4 °F 29.76 in Calm     92 % 0.00 in
02:12 61.7 °F 59.4 °F 29.76 in Calm     92 % 0.00 in
02:17 61.7 °F 59.7 °F 29.76 in Calm     93 % 0.00 in
02:27 61.6 °F 59.6 °F 29.76 in Calm     93 % 0.00 in
02:32 61.6 °F 59.6 °F 29.76 in Calm     93 % 0.00 in
02:37 61.6 °F 59.6 °F 29.76 in Calm     93 % 0.00 in
02:42 61.7 °F 59.7 °F 29.76 in Calm     93 % 0.00 in
02:48 61.6 °F 59.6 °F 29.76 in Calm     93 % 0.00 in
02:53 61.6 °F 59.6 °F 29.76 in Calm     93 % 0.00 in
02:58 61.6 °F 59.6 °F 29.76 in Calm     93 % 0.00 in
03:03 61.6 °F 59.6 °F 29.76 in Calm     93 % 0.00 in
03:08 61.6 °F 59.6 °F 29.75 in Calm     93 % 0.00 in
03:13 61.6 °F 59.6 °F 29.75 in Calm     93 % 0.00 in
03:18 61.5 °F 59.5 °F 29.76 in Calm     93 % 0.00 in
03:23 61.5 °F 59.5 °F 29.76 in Calm     93 % 0.00 in
03:28 61.5 °F 59.5 °F 29.76 in Calm     93 % 0.00 in
03:33 61.5 °F 59.8 °F 29.76 in Calm     94 % 0.00 in
03:39 61.4 °F 59.7 °F 29.76 in Calm     94 % 0.00 in
03:44 61.4 °F 59.7 °F 29.76 in Calm     94 % 0.00 in
03:49 61.5 °F 59.8 °F 29.77 in Calm     94 % 0.00 in
03:54 61.5 °F 59.8 °F 29.77 in Calm     94 % 0.00 in
03:59 61.4 °F 59.7 °F 29.77 in Calm     94 % 0.00 in
04:04 61.4 °F 59.7 °F 29.76 in Calm     94 % 0.00 in
04:09 61.3 °F 59.6 °F 29.76 in Calm     94 % 0.00 in
04:14 61.3 °F 59.6 °F 29.76 in Calm     94 % 0.00 in
04:19 61.3 °F 59.6 °F 29.76 in Calm     94 % 0.00 in
04:30 61.2 °F 59.5 °F 29.77 in Calm     94 % 0.00 in
04:35 61.2 °F 59.5 °F 29.77 in Calm     94 % 0.00 in
04:40 61.3 °F 59.6 °F 29.77 in Calm     94 % 0.00 in
04:45 61.3 °F 59.6 °F 29.77 in Calm     94 % 0.00 in
04:50 61.3 °F 59.6 °F 29.77 in Calm     94 % 0.00 in
04:55 61.3 °F 59.6 °F 29.77 in Calm     94 % 0.00 in
05:00 61.3 °F 59.6 °F 29.77 in Calm     94 % 0.00 in
05:05 61.2 °F 59.5 °F 29.77 in WSW 0.3 mph 1.0 mph 94 % 0.00 in
05:10 61.3 °F 59.6 °F 29.77 in WSW 1.5 mph 2.3 mph 94 % 0.00 in
05:15 61.3 °F 59.9 °F 29.77 in WSW 0.3 mph 1.2 mph 95 % 0.00 in
05:21 61.4 °F 60.0 °F 29.77 in WSW 0.2 mph 1.2 mph 95 % 0.00 in
05:26 61.4 °F 60.0 °F 29.77 in Calm     95 % 0.00 in
05:31 61.5 °F 60.1 °F 29.78 in Calm     95 % 0.00 in
05:36 61.5 °F 60.1 °F 29.78 in WSW 0.7 mph 1.2 mph 95 % 0.00 in
05:41 61.5 °F 60.1 °F 29.78 in Calm     95 % 0.00 in
05:46 61.6 °F 60.2 °F 29.79 in Calm     95 % 0.00 in
05:51 61.7 °F 60.3 °F 29.79 in Calm     95 % 0.00 in
05:56 61.8 °F 60.6 °F 29.79 in Calm     96 % 0.00 in
06:01 61.8 °F 60.6 °F 29.79 in WSW 0.3 mph 1.0 mph 96 % 0.00 in
06:06 61.9 °F 60.7 °F 29.80 in Calm     96 % 0.00 in
06:12 62.0 °F 60.8 °F 29.80 in Calm     96 % 0.00 in
06:17 62.1 °F 60.9 °F 29.80 in Calm     96 % 0.00 in
06:22 62.1 °F 60.9 °F 29.81 in Calm     96 % 0.00 in
06:27 62.2 °F 61.0 °F 29.81 in Calm     96 % 0.00 in
06:32 62.3 °F 61.1 °F 29.81 in Calm     96 % 0.00 in
06:37 62.5 °F 61.3 °F 29.81 in WSW 0.1 mph 1.0 mph 96 % 0.00 in
06:42 62.6 °F 61.4 °F 29.81 in Calm     96 % 0.00 in
06:47 62.8 °F 61.6 °F 29.81 in Calm     96 % 0.00 in
06:57 63.2 °F 62.3 °F 29.81 in Calm     97 % 0.00 in
07:03 63.5 °F 62.6 °F 29.81 in Calm     97 % 0.00 in
07:08 63.8 °F 62.9 °F 29.82 in Calm     97 % 0.00 in
07:13 64.0 °F 63.1 °F 29.81 in WSW 0.1 mph 1.0 mph 97 % 0.00 in
07:18 64.2 °F 63.3 °F 29.82 in NNE 0.6 mph 2.3 mph 97 % 0.00 in
07:23 64.3 °F 63.4 °F 29.82 in NNE 2.2 mph 3.5 mph 97 % 0.00 in
07:28 64.4 °F 63.2 °F 29.83 in NNE 1.5 mph 3.5 mph 96 % 0.00 in
07:33 64.4 °F 63.2 °F 29.83 in ENE 1.3 mph 4.0 mph 96 % 0.00 in
07:38 64.5 °F 63.3 °F 29.83 in NE 0.2 mph 1.2 mph 96 % 0.00 in
07:43 64.7 °F 63.2 °F 29.84 in NE 0.8 mph 2.3 mph 95 % 0.00 in
07:49 65.0 °F 63.8 °F 29.84 in East 1.4 mph 3.5 mph 96 % 0.00 in
07:54 65.5 °F 64.0 °F 29.84 in ENE 3.2 mph 10.4 mph 95 % 0.00 in
07:59 65.7 °F 63.9 °F 29.85 in ENE 2.6 mph 5.8 mph 94 % 0.00 in
08:04 65.9 °F 63.8 °F 29.85 in ENE 3.2 mph 6.0 mph 93 % 0.00 in
08:09 65.9 °F 63.8 °F 29.85 in NE 4.3 mph 6.9 mph 93 % 0.00 in
08:24 66.1 °F 63.4 °F 29.85 in NE 2.2 mph 3.5 mph 91 % 0.00 in
08:29 66.2 °F 63.2 °F 29.86 in NE 2.2 mph 3.5 mph 90 % 0.00 in
08:34 66.4 °F 63.7 °F 29.86 in ENE 2.4 mph 8.0 mph 91 % 0.00 in
08:40 66.7 °F 64.0 °F 29.86 in NE 2.3 mph 4.0 mph 91 % 0.00 in
08:45 66.8 °F 63.8 °F 29.86 in NE 0.6 mph 2.3 mph 90 % 0.00 in
08:50 67.0 °F 63.6 °F 29.86 in ENE 2.8 mph 6.9 mph 89 % 0.00 in
08:55 67.1 °F 64.1 °F 29.86 in ENE 0.5 mph 4.6 mph 90 % 0.00 in
09:00 67.3 °F 64.3 °F 29.86 in ENE 0.4 mph 1.2 mph 90 % 0.00 in
09:05 67.7 °F 65.0 °F 29.87 in ENE 0.5 mph 1.2 mph 91 % 0.00 in
09:15 68.4 °F 65.4 °F 29.87 in ENE 0.2 mph 1.2 mph 90 % 0.00 in
09:20 68.7 °F 65.0 °F 29.87 in NE 1.7 mph 3.0 mph 88 % 0.00 in
09:31 69.3 °F 65.3 °F 29.88 in ENE 2.6 mph 3.5 mph 87 % 0.00 in
09:36 69.6 °F 65.6 °F 29.88 in ENE 3.0 mph 5.0 mph 87 % 0.00 in
09:41 69.5 °F 65.1 °F 29.88 in NE 6.3 mph 11.5 mph 86 % 0.00 in
09:46 69.1 °F 64.1 °F 29.89 in East 6.3 mph 10.4 mph 84 % 0.00 in
09:51 68.2 °F 63.5 °F 29.89 in East 5.3 mph 9.2 mph 85 % 0.00 in
09:56 67.4 °F 62.7 °F 29.89 in East 7.5 mph 11.5 mph 85 % 0.00 in
10:01 66.8 °F 62.5 °F 29.90 in ENE 5.3 mph 11.5 mph 86 % 0.00 in
10:06 66.5 °F 62.5 °F 29.90 in ENE 5.7 mph 10.0 mph 87 % 0.00 in
10:11 66.2 °F 62.2 °F 29.90 in ENE 2.8 mph 6.9 mph 87 % 0.00 in
10:16 66.1 °F 62.4 °F 29.90 in ENE 4.3 mph 10.4 mph 88 % 0.00 in
10:22 66.7 °F 63.7 °F 29.90 in NE 4.9 mph 8.0 mph 90 % 0.00 in
10:27 67.6 °F 63.9 °F 29.90 in ENE 4.6 mph 9.2 mph 88 % 0.00 in
10:32 68.5 °F 64.1 °F 29.91 in ENE 5.2 mph 9.2 mph 86 % 0.00 in
10:37 69.2 °F 64.5 °F 29.91 in ENE 7.5 mph 11.5 mph 85 % 0.00 in
10:42 69.3 °F 64.3 °F 29.91 in ENE 4.5 mph 10.4 mph 84 % 0.00 in
10:47 69.2 °F 63.5 °F 29.91 in East 8.5 mph 15.0 mph 82 % 0.00 in
10:52 69.0 °F 63.3 °F 29.92 in ENE 8.5 mph 13.8 mph 82 % 0.00 in
10:57 69.0 °F 63.3 °F 29.92 in ENE 6.8 mph 11.5 mph 82 % 0.00 in
11:02 69.2 °F 63.8 °F 29.92 in ENE 6.2 mph 8.1 mph 83 % 0.00 in
11:07 69.1 °F 63.4 °F 29.92 in East 6.9 mph 10.4 mph 82 % 0.00 in
11:13 69.4 °F 63.7 °F 29.93 in NE 6.8 mph 11.5 mph 82 % 0.00 in
11:18 70.0 °F 64.6 °F 29.93 in NE 3.2 mph 8.1 mph 83 % 0.00 in
11:23 70.5 °F 63.7 °F 29.93 in ENE 5.1 mph 17.3 mph 79 % 0.00 in
11:28 70.8 °F 64.3 °F 29.93 in ENE 3.2 mph 6.9 mph 80 % 0.00 in
11:33 71.5 °F 64.6 °F 29.93 in ENE 2.6 mph 3.5 mph 79 % 0.00 in
11:38 71.7 °F 63.7 °F 29.93 in ENE 2.4 mph 4.6 mph 76 % 0.00 in
11:43 71.7 °F 64.5 °F 29.94 in ENE 2.4 mph 3.5 mph 78 % 0.00 in
11:48 71.5 °F 63.2 °F 29.94 in ENE 5.0 mph 8.1 mph 75 % 0.00 in
11:53 71.3 °F 63.3 °F 29.94 in ENE 2.9 mph 9.2 mph 76 % 0.00 in
11:58 70.8 °F 62.9 °F 29.94 in ENE 3.7 mph 8.1 mph 76 % 0.00 in
12:04 70.1 °F 62.2 °F 29.94 in ENE 4.0 mph 8.1 mph 76 % 0.00 in
12:09 69.6 °F 62.4 °F 29.95 in NNE 6.3 mph 9.2 mph 78 % 0.00 in
12:14 69.2 °F 62.0 °F 29.95 in NE 7.5 mph 10.4 mph 78 % 0.00 in
12:19 68.6 °F 61.5 °F 29.95 in ENE 3.9 mph 9.2 mph 78 % 0.00 in
12:24 68.8 °F 62.0 °F 29.95 in ENE 2.1 mph 4.6 mph 79 % 0.00 in
12:29 69.3 °F 62.9 °F 29.95 in ENE 2.1 mph 8.1 mph 80 % 0.00 in
12:34 69.9 °F 62.7 °F 29.95 in East 3.5 mph 6.9 mph 78 % 0.00 in
12:39 70.2 °F 62.3 °F 29.95 in ENE 6.0 mph 6.9 mph 76 % 0.00 in
12:44 70.3 °F 62.4 °F 29.96 in ENE 3.5 mph 9.2 mph 76 % 0.00 in
12:49 70.4 °F 62.8 °F 29.96 in NE 3.9 mph 5.0 mph 77 % 0.00 in
12:55 70.6 °F 63.0 °F 29.96 in ENE 3.1 mph 4.0 mph 77 % 0.00 in
13:00 70.3 °F 61.6 °F 29.96 in East 2.8 mph 6.9 mph 74 % 0.00 in
13:05 69.9 °F 62.0 °F 29.96 in ENE 1.8 mph 6.9 mph 76 % 0.00 in
13:10 69.8 °F 61.9 °F 29.96 in ENE 2.1 mph 3.5 mph 76 % 0.00 in
13:15 69.8 °F 61.9 °F 29.97 in ENE 1.9 mph 3.5 mph 76 % 0.00 in
13:20 69.7 °F 61.8 °F 29.96 in ENE 1.7 mph 3.5 mph 76 % 0.00 in
13:25 69.5 °F 61.2 °F 29.96 in East 0.9 mph 3.5 mph 75 % 0.00 in
13:30 69.6 °F 62.8 °F 29.97 in ENE 2.1 mph 4.6 mph 79 % 0.00 in
13:35 69.7 °F 62.2 °F 29.97 in NE 0.8 mph 2.3 mph 77 % 0.00 in
13:40 70.3 °F 62.7 °F 29.96 in NE 2.4 mph 3.5 mph 77 % 0.00 in
13:46 70.8 °F 62.5 °F 29.96 in ENE 4.0 mph 5.8 mph 75 % 0.00 in
13:51 71.4 °F 62.7 °F 29.97 in ENE 1.4 mph 3.5 mph 74 % 0.00 in
13:56 72.1 °F 63.4 °F 29.97 in ENE 2.3 mph 4.6 mph 74 % 0.00 in
14:01 72.6 °F 63.4 °F 29.97 in ENE 4.0 mph 7.0 mph 73 % 0.00 in
14:06 72.5 °F 63.0 °F 29.97 in ENE 2.1 mph 4.0 mph 72 % 0.00 in
14:11 72.7 °F 63.5 °F 29.97 in NE 2.0 mph 3.5 mph 73 % 0.00 in
14:16 73.1 °F 63.5 °F 29.97 in ENE 1.9 mph 3.5 mph 72 % 0.00 in
14:21 73.9 °F 64.7 °F 29.97 in NE 1.2 mph 3.0 mph 73 % 0.00 in
14:26 74.1 °F 63.3 °F 29.97 in ENE 0.1 mph 3.5 mph 69 % 0.00 in
14:31 73.9 °F 63.1 °F 29.97 in East 1.2 mph 3.5 mph 69 % 0.00 in
14:37 73.9 °F 63.5 °F 29.97 in ENE 3.8 mph 8.1 mph 70 % 0.00 in
14:42 74.1 °F 64.1 °F 29.97 in ENE 0.8 mph 5.0 mph 71 % 0.00 in
14:47 74.5 °F 63.2 °F 29.97 in ENE 0.8 mph 2.3 mph 68 % 0.00 in
14:52 75.2 °F 63.5 °F 29.97 in NE 3.4 mph 6.9 mph 67 % 0.00 in
15:02 76.4 °F 63.3 °F 29.97 in ENE 2.2 mph 4.6 mph 64 % 0.00 in
15:07 76.4 °F 63.3 °F 29.97 in ENE 1.9 mph 3.5 mph 64 % 0.00 in
15:12 76.5 °F 62.5 °F 29.97 in ENE 2.0 mph 6.9 mph 62 % 0.00 in
15:17 76.3 °F 61.9 °F 29.97 in ENE 2.0 mph 2.3 mph 61 % 0.00 in
15:22 76.0 °F 61.1 °F 29.97 in ENE 1.2 mph 3.5 mph 60 % 0.00 in
15:28 76.1 °F 61.7 °F 29.97 in ENE 2.3 mph 4.6 mph 61 % 0.00 in
15:33 75.9 °F 61.9 °F 29.97 in NE 0.6 mph 3.5 mph 62 % 0.00 in
15:38 76.3 °F 62.8 °F 29.97 in NE 1.1 mph 2.3 mph 63 % 0.00 in
15:43 76.6 °F 61.7 °F 29.97 in NE 1.1 mph 2.3 mph 60 % 0.00 in
15:48 76.8 °F 61.4 °F 29.97 in ENE 1.6 mph 3.5 mph 59 % 0.00 in
15:53 77.0 °F 62.0 °F 29.97 in NE 1.0 mph 3.5 mph 60 % 0.00 in
15:58 77.1 °F 60.2 °F 29.97 in NE 1.5 mph 3.5 mph 56 % 0.00 in
16:03 77.3 °F 59.9 °F 29.97 in Calm   1.2 mph 55 % 0.00 in
16:08 77.5 °F 60.6 °F 29.97 in Calm   2.3 mph 56 % 0.00 in
16:13 77.6 °F 59.1 °F 29.97 in Calm   3.5 mph 53 % 0.00 in
16:19 77.9 °F 58.3 °F 29.97 in NE 0.9 mph 2.3 mph 51 % 0.00 in
16:24 78.1 °F 56.8 °F 29.97 in Calm   1.2 mph 48 % 0.00 in
16:29 78.5 °F 58.3 °F 29.97 in NNE 0.4 mph 3.0 mph 50 % 0.00 in
16:34 78.8 °F 58.6 °F 29.97 in North 1.6 mph 3.5 mph 50 % 0.00 in
16:39 79.1 °F 60.5 °F 29.97 in NE 1.5 mph 4.0 mph 53 % 0.00 in
16:44 78.9 °F 57.5 °F 29.97 in NE 0.2 mph 2.3 mph 48 % 0.00 in
16:49 79.1 °F 58.9 °F 29.97 in NNW 2.0 mph 3.5 mph 50 % 0.00 in
16:54 79.4 °F 56.2 °F 29.97 in SSE 1.0 mph 4.0 mph 45 % 0.00 in
16:59 79.4 °F 53.6 °F 29.97 in SSE 1.8 mph 3.5 mph 41 % 0.00 in
17:04 78.7 °F 51.7 °F 29.97 in SE 3.6 mph 6.9 mph 39 % 0.00 in
17:10 78.2 °F 51.9 °F 29.97 in SSW 0.2 mph 3.5 mph 40 % 0.00 in
17:15 77.8 °F 51.5 °F 29.97 in SE 1.8 mph 8.1 mph 40 % 0.00 in
17:20 77.2 °F 51.0 °F 29.98 in SSE 0.5 mph 3.5 mph 40 % 0.00 in
17:25 76.7 °F 51.2 °F 29.98 in SSE 4.2 mph 6.9 mph 41 % 0.00 in
17:30 76.3 °F 51.5 °F 29.98 in SSE 0.1 mph 3.5 mph 42 % 0.00 in
17:35 75.7 °F 50.3 °F 29.98 in SSE 0.7 mph 3.5 mph 41 % 0.00 in
17:40 75.4 °F 51.3 °F 29.98 in SSE 0.4 mph 2.0 mph 43 % 0.00 in
17:45 75.2 °F 49.9 °F 29.98 in SSE 2.4 mph 7.0 mph 41 % 0.00 in
17:50 74.6 °F 50.0 °F 29.98 in SE 2.6 mph 7.0 mph 42 % 0.00 in
17:55 74.2 °F 49.6 °F 29.98 in SE 4.5 mph 7.0 mph 42 % 0.00 in
18:01 73.7 °F 49.2 °F 29.98 in SSE 3.0 mph 8.1 mph 42 % 0.00 in
18:06 73.4 °F 49.5 °F 29.99 in SE 1.7 mph 3.5 mph 43 % 0.00 in
18:11 73.3 °F 49.4 °F 29.99 in SSE 4.6 mph 8.0 mph 43 % 0.00 in
18:16 73.1 °F 48.6 °F 29.99 in SSE 1.3 mph 3.5 mph 42 % 0.00 in
18:21 73.1 °F 48.6 °F 29.99 in SSE 1.7 mph 6.9 mph 42 % 0.00 in
18:26 73.0 °F 47.9 °F 29.99 in SE 3.3 mph 6.9 mph 41 % 0.00 in
18:31 72.5 °F 47.5 °F 29.99 in SSE 4.8 mph 6.9 mph 41 % 0.00 in
18:36 72.3 °F 47.3 °F 29.99 in SSE 3.1 mph 9.2 mph 41 % 0.00 in
18:41 72.1 °F 47.7 °F 30.00 in SE 3.4 mph 6.0 mph 42 % 0.00 in
18:52 71.9 °F 49.4 °F 30.00 in SE 1.6 mph 4.6 mph 45 % 0.00 in
19:07 71.3 °F 48.3 °F 30.01 in SE 6.1 mph 9.2 mph 44 % 0.00 in
19:12 71.0 °F 48.6 °F 30.00 in SSE 0.3 mph 1.2 mph 45 % 0.00 in
19:17 70.8 °F 49.0 °F 30.00 in SE 3.2 mph 4.0 mph 46 % 0.00 in
19:22 70.6 °F 48.8 °F 30.01 in SSE 0.6 mph 2.3 mph 46 % 0.00 in
19:27 70.5 °F 48.7 °F 30.01 in SE 0.8 mph 3.5 mph 46 % 0.00 in
19:32 70.3 °F 47.9 °F 30.01 in SE 2.5 mph 5.8 mph 45 % 0.00 in
19:37 70.1 °F 48.4 °F 30.01 in SE 3.9 mph 8.1 mph 46 % 0.00 in
19:43 69.8 °F 48.7 °F 30.01 in SSE 2.3 mph 4.0 mph 47 % 0.00 in
19:48 69.5 °F 48.9 °F 30.02 in SSE 1.6 mph 6.9 mph 48 % 0.00 in
19:53 69.3 °F 49.3 °F 30.02 in SE 1.1 mph 2.3 mph 49 % 0.00 in
19:58 69.0 °F 48.5 °F 30.02 in SSE 3.3 mph 6.0 mph 48 % 0.00 in
20:08 68.3 °F 48.4 °F 30.02 in SE 3.5 mph 6.0 mph 49 % 0.00 in
20:13 68.0 °F 48.7 °F 30.02 in SSE 3.4 mph 5.8 mph 50 % 0.00 in
20:18 67.7 °F 48.9 °F 30.02 in SSE 0.9 mph 2.3 mph 51 % 0.00 in
20:23 67.4 °F 48.6 °F 30.02 in SSE 1.5 mph 3.5 mph 51 % 0.00 in
20:28 67.1 °F 48.9 °F 30.02 in SE 1.6 mph 6.9 mph 52 % 0.00 in
20:34 66.9 °F 49.2 °F 30.02 in SSE 0.1 mph 2.3 mph 53 % 0.00 in
20:39 66.7 °F 49.5 °F 30.02 in South 0.4 mph 2.3 mph 54 % 0.00 in
20:44 66.5 °F 49.8 °F 30.02 in SSE 1.2 mph 3.5 mph 55 % 0.00 in
20:49 66.2 °F 49.6 °F 30.03 in SSE 0.5 mph 2.0 mph 55 % 0.00 in
20:59 65.8 °F 49.7 °F 30.03 in SSE 1.4 mph 3.5 mph 56 % 0.00 in
21:04 65.6 °F 50.0 °F 30.03 in SE 1.0 mph 6.0 mph 57 % 0.00 in
21:09 65.4 °F 50.2 °F 30.03 in SSE 0.3 mph 5.8 mph 58 % 0.00 in
21:14 65.3 °F 50.6 °F 30.03 in SE 0.5 mph 2.3 mph 59 % 0.00 in
21:20 65.2 °F 50.5 °F 30.04 in SSE 0.2 mph 1.2 mph 59 % 0.00 in
21:25 65.1 °F 50.4 °F 30.04 in SE 1.6 mph 3.5 mph 59 % 0.00 in
21:30 65.0 °F 50.8 °F 30.05 in SSE 2.7 mph 3.5 mph 60 % 0.00 in
21:35 65.0 °F 50.8 °F 30.05 in SSE 1.3 mph 6.9 mph 60 % 0.00 in
21:40 64.9 °F 51.1 °F 30.06 in SSE 2.0 mph 4.0 mph 61 % 0.00 in
21:45 64.9 °F 51.1 °F 30.06 in SSE 0.9 mph 2.3 mph 61 % 0.00 in
21:50 64.9 °F 51.1 °F 30.06 in SE 0.3 mph 2.3 mph 61 % 0.00 in
21:55 64.9 °F 51.1 °F 30.06 in South 0.7 mph 2.3 mph 61 % 0.00 in
22:00 64.9 °F 51.1 °F 30.06 in SSE 2.1 mph 4.0 mph 61 % 0.00 in
22:05 64.8 °F 51.0 °F 30.07 in SSE 2.3 mph 4.6 mph 61 % 0.00 in
22:11 64.7 °F 50.9 °F 30.07 in WSW 1.5 mph 3.5 mph 61 % 0.00 in
22:16 64.7 °F 51.4 °F 30.07 in SW 0.2 mph 1.2 mph 62 % 0.00 in
22:21 64.6 °F 51.3 °F 30.08 in WSW 1.5 mph 5.8 mph 62 % 0.00 in
22:26 64.5 °F 51.2 °F 30.08 in WSW 2.3 mph 4.0 mph 62 % 0.00 in
22:31 64.4 °F 52.0 °F 30.08 in WSW 0.3 mph 2.3 mph 64 % 0.00 in
22:36 64.4 °F 52.0 °F 30.08 in West 1.2 mph 3.5 mph 64 % 0.00 in
22:41 64.3 °F 52.3 °F 30.08 in WSW 3.0 mph 3.5 mph 65 % 0.00 in
22:46 64.3 °F 52.3 °F 30.09 in WSW 1.8 mph 3.5 mph 65 % 0.00 in
22:51 64.2 °F 52.2 °F 30.08 in SW 1.3 mph 3.5 mph 65 % 0.00 in
22:56 64.1 °F 52.5 °F 30.09 in West 2.1 mph 3.5 mph 66 % 0.00 in
23:02 64.1 °F 52.5 °F 30.08 in WSW 0.2 mph 1.2 mph 66 % 0.00 in
23:07 64.0 °F 52.0 °F 30.08 in WSW 0.1 mph 1.0 mph 65 % 0.00 in
23:12 64.0 °F 52.4 °F 30.09 in Calm     66 % 0.00 in
23:17 63.9 °F 52.3 °F 30.08 in Calm     66 % 0.00 in
23:22 63.8 °F 52.6 °F 30.09 in WSW 0.7 mph 2.0 mph 67 % 0.00 in
23:27 63.6 °F 52.4 °F 30.09 in WSW 0.7 mph 1.2 mph 67 % 0.00 in
23:32 63.5 °F 52.3 °F 30.09 in WSW 0.4 mph 2.3 mph 67 % 0.00 in
23:37 63.3 °F 52.2 °F 30.09 in WSW 0.9 mph 1.2 mph 67 % 0.00 in
23:42 63.1 °F 52.4 °F 30.10 in SW 0.1 mph 3.5 mph 68 % 0.00 in
23:53 62.8 °F 52.1 °F 30.09 in Calm     68 % 0.00 in
23:58 62.6 °F 52.3 °F 30.09 in SW 0.2 mph 1.2 mph 69 % 0.00 in
Crab Meadow Weather
Compliments of Weather Underground - 2.75 mb

Script developed by  Jim McMurry - jmcmurry@mwt.net Adapted for the template by  Wim van der Kuil - Leuven-Template.eu

Weather Terms: Heat Index - The apparent temperature that describes the combined effect of high temperatures and high levels of humidity, which reduces the body's ability to cool itself.